Voltar ao catálogo

STARLINK-31075

AtivoComunicaçõesVLEO
NORAD 58594·PAYLOAD·🇺🇸 United States

Lançado Dec 19, 2023 de Cape Canaveral Space Force Station

Loading…

Próximas Passagens (próximas 24 horas)

TLE

AtualizadoSource: CelesTrak SupGP

Época: Sep 15, 2026, 01:47 UTC

1 58594C 23200F   26258.07479167  .00019752  00000+0  71583-3 0  2580
2 58594  43.0031 178.9371 0001421 284.4712 274.7228 15.27550047    15

Acompanhe STARLINK-31075 em tempo real com AllMySat

Download on the App Store